EW7285 Weather Reports


Display with metric or nautical units.
time (UTC)temp
F
wind
direction
speed
MPH
gust
MPH
rain 1hr
in
rain 24hr
in
rain mn
in
humidity
%
barometer
mb
20260509060002 41 148 0.0 0.0 0.00 0.00 0.00 76 1025.4
20260509054558 38 148 0.0 0.0 0.00 0.00 0.00 80 1025.5
20260509053052 37 148 0.0 0.0 0.00 0.00 0.00 82 1025.5
20260509051550 35 148 0.0 0.0 0.00 0.00 0.00 81 1025.6
20260509050049 35 148 0.0 0.0 0.00 0.00 0.00 82 1025.7
20260509044544 34 148 0.0 0.0 0.00 0.00 0.00 83 1025.7
20260509043042 33 148 1.0 2.0 0.00 0.00 0.00 83 1025.7
20260509041539 32 148 0.0 0.0 0.00 0.00 0.00 84 1025.6
20260509040039 30 148 0.0 0.0 0.00 0.00 0.00 85 1025.6
20260509034537 30 148 0.0 0.0 0.00 0.00 0.00 86 1025.6
20260509033036 29 148 0.0 0.0 0.00 0.00 0.00 86 1025.7
20260509031536 29 148 0.0 0.0 0.00 0.00 0.00 85 1025.7
20260509030038 29 148 0.0 0.0 0.00 0.00 0.00 86 1025.8
20260509024534 30 148 0.0 0.0 0.00 0.00 0.00 85 1025.8
20260509023031 30 148 0.0 0.0 0.00 0.00 0.00 84 1025.8
20260509021530 30 148 0.0 0.0 0.00 0.00 0.00 84 1025.8
20260509020045 30 148 0.0 0.0 0.00 0.00 0.00 83 1025.8
20260509014541 30 148 0.0 0.0 0.00 0.00 0.00 83 1025.9
20260509013035 30 148 0.0 0.0 0.00 0.00 0.00 83 1025.8
20260509011523 30 148 0.0 0.0 0.00 0.00 0.00 83 1025.8
20260509010020 30 148 0.0 0.0 0.00 0.00 0.00 83 1025.7
20260509004520 31 148 0.0 0.0 0.00 0.00 0.00 81 1025.7
20260509003028 31 148 0.0 0.0 0.00 0.00 0.00 80 1025.6
20260509001515 31 148 0.0 0.0 0.00 0.00 0.00 79 1025.6
20260509000014 31 148 0.0 0.0 0.00 0.00 0.00 79 1025.6
20260508234512 31 148 0.0 0.0 0.00 0.00 0.00 78 1025.7
20260508233010 32 148 0.0 0.0 0.00 0.00 0.00 77 1025.8
20260508231505 33 148 0.0 0.0 0.00 0.00 0.00 76 1025.7
20260508230005 33 148 0.0 0.0 0.00 0.00 0.00 74 1025.7
20260508224602 33 148 0.0 0.0 0.00 0.00 0.00 73 1025.7
20260508223055 33 148 0.0 0.0 0.00 0.00 0.00 72 1025.8
20260508221558 33 148 0.0 0.0 0.00 0.00 0.00 71 1025.8
20260508220050 33 148 0.0 0.0 0.00 0.00 0.00 70 1025.8
20260508214550 34 148 0.0 0.0 0.00 0.00 0.00 69 1025.8
20260508213049 35 148 0.0 0.0 0.00 0.00 0.00 67 1025.8
20260508211547 36 148 0.0 0.0 0.00 0.00 0.00 65 1025.8
20260508210047 37 148 0.0 0.0 0.00 0.00 0.00 62 1025.7
20260508204547 38 148 0.0 0.0 0.00 0.00 0.00 61 1025.7
20260508203050 38 148 0.0 0.0 0.00 0.00 0.00 58 1025.6
20260508201556 39 148 0.0 0.0 0.00 0.00 0.00 56 1025.7
20260508200045 40 148 0.0 0.0 0.00 0.00 0.00 53 1025.6
20260508194544 42 148 0.0 0.0 0.00 0.00 0.00 50 1025.7
20260508193043 43 148 0.0 0.0 0.00 0.00 0.00 49 1025.5
20260508191542 45 148 0.0 0.0 0.00 0.00 0.00 45 1025.4
20260508190041 47 148 0.0 0.0 0.00 0.00 0.00 40 1025.4
20260508184542 48 148 0.0 2.0 0.00 0.00 0.00 38 1025.4
20260508183042 49 149 2.0 6.0 0.00 0.00 0.00 38 1025.3
20260508181553 50 153 2.0 6.0 0.00 0.00 0.00 37 1025.3
20260508180039 51 142 2.0 8.0 0.00 0.00 0.00 36 1025.1
20260508174550 51 154 4.0 9.0 0.00 0.00 0.00 36 1025.0
20260508173043 52 134 5.0 10.0 0.00 0.00 0.00 33 1024.9
20260508171537 52 146 7.0 10.0 0.00 0.00 0.00 33 1025.0
20260508170034 53 164 5.0 12.0 0.00 0.00 0.00 34 1025.1
20260508164532 53 130 6.0 11.0 0.00 0.00 0.00 32 1025.1
20260508163033 54 143 3.0 10.0 0.00 0.00 0.00 30 1025.1
20260508161528 54 141 6.0 14.0 0.00 0.00 0.00 31 1025.1
20260508160026 54 186 8.0 15.0 0.00 0.00 0.00 30 1025.0
20260508154526 54 145 7.0 15.0 0.00 0.00 0.00 32 1025.1
20260508153024 54 141 10.0 16.0 0.00 0.00 0.00 31 1025.2
20260508151529 54 160 9.0 15.0 0.00 0.00 0.00 31 1025.2
20260508150030 54 143 9.0 17.0 0.00 0.00 0.00 30 1025.2
20260508144519 54 153 10.0 15.0 0.00 0.00 0.00 31 1025.3
20260508143019 55 143 8.0 19.0 0.00 0.00 0.00 30 1025.2
20260508141516 55 108 5.0 16.0 0.00 0.00 0.00 30 1025.1
20260508140010 55 167 10.0 16.0 0.00 0.00 0.00 31 1025.1
20260508134507 55 146 12.0 20.0 0.00 0.00 0.00 33 1025.1
20260508133007 56 166 7.0 14.0 0.00 0.00 0.00 28 1025.1
20260508131505 56 126 8.0 12.0 0.00 0.00 0.00 29 1025.2
20260508130005 57 59 6.0 14.0 0.00 0.00 0.00 32 1025.2
20260508124503 57 136 5.0 16.0 0.00 0.00 0.00 32 1025.3
20260508123004 56 174 9.0 13.0 0.00 0.00 0.00 34 1025.2
20260508121509 56 96 5.0 14.0 0.00 0.00 0.00 33 1025.3
20260508120001 57 85 4.0 11.0 0.00 0.00 0.00 31 1025.2
20260508114600 56 67 9.0 14.0 0.00 0.00 0.00 36 1025.2
20260508113112 57 166 5.0 23.0 0.00 0.00 0.00 34 1025.2
20260508111604 56 96 6.0 15.0 0.00 0.00 0.00 33 1025.3
20260508110100 56 164 5.0 17.0 0.00 0.00 0.00 37 1025.2
20260508104557 56 186 5.0 15.0 0.00 0.00 0.00 36 1025.2
20260508103056 56 45 5.0 15.0 0.00 0.00 0.00 35 1025.2
20260508101555 56 182 4.0 10.0 0.00 0.00 0.00 36 1025.2
20260508100054 56 82 8.0 10.0 0.00 0.00 0.00 33 1025.3
20260508094553 56 114 3.0 10.0 0.00 0.00 0.00 34 1025.3
20260508093055 56 152 3.0 9.0 0.00 0.00 0.00 34 1025.4
20260508091552 55 67 9.0 14.0 0.00 0.00 0.00 33 1025.4
20260508090047 54 157 2.0 11.0 0.00 0.00 0.00 36 1025.5
20260508084545 54 163 8.0 14.0 0.00 0.00 0.00 36 1025.5
20260508083104 53 159 9.0 15.0 0.00 0.00 0.00 38 1025.4
20260508081542 54 157 3.0 10.0 0.00 0.00 0.00 40 1025.4
20260508080039 53 105 3.0 10.0 0.00 0.00 0.00 37 1025.3
20260508074546 52 153 4.0 11.0 0.00 0.00 0.00 37 1025.3
20260508073037 52 163 6.0 13.0 0.00 0.00 0.00 40 1025.3
20260508071532 52 89 5.0 9.0 0.00 0.00 0.00 39 1025.1
20260508070028 51 86 4.0 10.0 0.00 0.00 0.00 40 1025.0
20260508064524 50 88 3.0 11.0 0.00 0.00 0.00 45 1025.0
20260508063021 49 177 6.0 11.0 0.00 0.00 0.00 48 1024.8
20260508061521 48 130 3.0 9.0 0.00 0.00 0.00 50 1024.6